TimeCST,TemperatureF,Dew PointF,Humidity,Sea Level PressureIn,VisibilityMPH,Wind Direction,Wind SpeedMPH,Gust SpeedMPH,PrecipitationIn,Events,Conditions,WindDirDegrees,DateUTC
12:15 AM,42.8,30.2,61,29.63,10.0,SE,10.4,-,N/A,,Overcast,140,2012-12-15 06:15:00
12:35 AM,42.8,30.2,61,29.61,10.0,SE,11.5,-,N/A,,Overcast,140,2012-12-15 06:35:00
12:55 AM,41.0,30.2,65,29.60,10.0,SE,8.1,-,N/A,,Overcast,130,2012-12-15 06:55:00
1:15 AM,39.2,30.2,70,29.61,10.0,SSE,8.1,-,N/A,,Mostly Cloudy,150,2012-12-15 07:15:00
1:35 AM,39.2,30.2,70,29.62,9.0,SSE,5.8,-,N/A,,Mostly Cloudy,150,2012-12-15 07:35:00
1:55 AM,39.2,30.2,70,29.61,10.0,SE,5.8,-,N/A,,Overcast,130,2012-12-15 07:55:00
2:15 AM,37.4,30.2,75,29.62,9.0,ESE,6.9,-,N/A,,Overcast,120,2012-12-15 08:15:00
2:35 AM,39.2,32.0,75,29.61,7.0,SE,6.9,-,N/A,,Overcast,130,2012-12-15 08:35:00
2:55 AM,39.2,33.8,81,29.60,7.0,ESE,8.1,-,0.01,,Overcast,120,2012-12-15 08:55:00
3:15 AM,37.4,33.8,87,29.59,7.0,ESE,10.4,-,0.03,,Overcast,120,2012-12-15 09:15:00
3:35 AM,37.4,33.8,87,29.58,10.0,ESE,8.1,-,0.03,,Overcast,120,2012-12-15 09:35:00
3:55 AM,37.4,33.8,87,29.57,5.0,ESE,8.1,-,0.03,,Overcast,110,2012-12-15 09:55:00
4:15 AM,37.4,33.8,87,29.55,3.0,ESE,6.9,-,0.02,,Overcast,110,2012-12-15 10:15:00
4:35 AM,39.2,33.8,81,29.55,4.0,ESE,8.1,-,0.05,,Overcast,120,2012-12-15 10:35:00
4:55 AM,39.2,33.8,81,29.53,3.0,East,8.1,-,0.06,,Overcast,100,2012-12-15 10:55:00
5:15 AM,37.4,33.8,87,29.53,2.5,East,6.9,-,0.01,,Overcast,100,2012-12-15 11:15:00
5:35 AM,37.4,33.8,87,29.52,3.0,East,9.2,-,0.02,,Overcast,100,2012-12-15 11:35:00
5:55 AM,37.4,33.8,87,29.51,3.0,East,8.1,-,0.03,,Overcast,100,2012-12-15 11:55:00
6:15 AM,37.4,33.8,87,29.51,3.0,ESE,9.2,-,N/A,,Overcast,110,2012-12-15 12:15:00
6:35 AM,37.4,33.8,87,29.51,2.5,ESE,8.1,-,N/A,,Overcast,110,2012-12-15 12:35:00
6:55 AM,37.4,33.8,87,29.51,2.0,ESE,8.1,-,N/A,,Overcast,110,2012-12-15 12:55:00
7:15 AM,37.4,33.8,87,29.51,2.5,ESE,8.1,-,N/A,,Overcast,110,2012-12-15 13:15:00
7:35 AM,37.4,33.8,87,29.51,1.2,ESE,6.9,-,N/A,,Overcast,110,2012-12-15 13:35:00
7:55 AM,37.4,33.8,87,29.50,0.8,ESE,5.8,-,0.01,,Overcast,110,2012-12-15 13:55:00
8:15 AM,37.4,33.8,87,29.50,1.2,ESE,5.8,-,N/A,,Overcast,120,2012-12-15 14:15:00
8:35 AM,37.4,33.8,87,29.50,3.0,SE,5.8,-,N/A,,Overcast,130,2012-12-15 14:35:00
8:55 AM,39.2,33.8,81,29.50,3.0,SE,6.9,-,N/A,,Overcast,140,2012-12-15 14:55:00
9:15 AM,39.2,33.8,81,29.50,5.0,SE,6.9,-,N/A,,Overcast,140,2012-12-15 15:15:00
9:35 AM,39.2,33.8,81,29.50,5.0,SE,5.8,-,N/A,,Overcast,140,2012-12-15 15:35:00
9:55 AM,39.2,33.8,81,29.50,5.0,SSE,4.6,-,N/A,,Overcast,150,2012-12-15 15:55:00
10:15 AM,39.2,33.8,81,29.50,5.0,SSE,4.6,-,N/A,,Overcast,160,2012-12-15 16:15:00
10:35 AM,39.2,35.6,87,29.50,5.0,SSW,4.6,-,N/A,,Overcast,200,2012-12-15 16:35:00
10:55 AM,39.2,35.6,87,29.51,5.0,Calm,Calm,-,N/A,,Overcast,0,2012-12-15 16:55:00
11:15 AM,39.2,35.6,87,29.50,9.0,SW,4.6,-,N/A,,Overcast,230,2012-12-15 17:15:00
11:35 AM,39.2,35.6,87,29.50,1.8,NW,10.4,-,N/A,,Overcast,320,2012-12-15 17:35:00
11:55 AM,37.4,32.0,81,29.50,0.2,NNW,12.7,-,N/A,,Overcast,330,2012-12-15 17:55:00
12:15 PM,35.6,30.2,81,29.50,0.2,NNW,11.5,-,N/A,,Overcast,340,2012-12-15 18:15:00
12:35 PM,35.6,30.2,81,29.49,0.2,NNW,12.7,-,N/A,,Overcast,340,2012-12-15 18:35:00
12:55 PM,35.6,30.2,81,29.49,0.5,North,10.4,-,N/A,,Overcast,350,2012-12-15 18:55:00
1:15 PM,35.6,30.2,81,29.49,0.5,North,6.9,-,N/A,,Overcast,350,2012-12-15 19:15:00
1:35 PM,35.6,30.2,81,29.49,0.5,NNW,10.4,-,N/A,,Overcast,340,2012-12-15 19:35:00
1:55 PM,35.6,30.2,81,29.49,1.0,NNW,6.9,-,N/A,,Overcast,340,2012-12-15 19:55:00
2:15 PM,35.6,30.2,81,29.49,1.8,NNW,10.4,-,N/A,,Overcast,330,2012-12-15 20:15:00
2:35 PM,35.6,30.2,81,29.49,1.8,NNW,8.1,-,N/A,,Overcast,330,2012-12-15 20:35:00
2:55 PM,35.6,30.2,81,29.50,3.0,NW,10.4,-,N/A,,Overcast,320,2012-12-15 20:55:00
3:15 PM,35.6,30.2,81,29.51,3.0,NW,11.5,-,N/A,,Overcast,310,2012-12-15 21:15:00
3:35 PM,35.6,30.2,81,29.52,2.5,NW,11.5,-,N/A,,Overcast,320,2012-12-15 21:35:00
3:55 PM,33.8,28.4,81,29.52,3.0,NW,10.4,-,N/A,,Overcast,320,2012-12-15 21:55:00
4:15 PM,33.8,28.4,81,29.53,1.8,NW,10.4,-,N/A,,Overcast,320,2012-12-15 22:15:00
4:35 PM,33.8,28.4,81,29.54,2.0,NW,12.7,-,N/A,,Overcast,320,2012-12-15 22:35:00
4:55 PM,33.8,28.4,81,29.55,1.8,NW,10.4,-,N/A,,Overcast,320,2012-12-15 22:55:00
5:15 PM,33.8,28.4,81,29.55,4.0,NW,11.5,-,N/A,,Overcast,320,2012-12-15 23:15:00
5:35 PM,33.8,28.4,81,29.56,3.0,NW,13.8,-,N/A,,Overcast,320,2012-12-15 23:35:00
5:55 PM,33.8,26.6,75,29.58,3.0,NW,12.7,-,N/A,,Overcast,320,2012-12-15 23:55:00
6:15 PM,32.0,26.6,80,29.59,3.0,NW,13.8,-,N/A,,Overcast,320,2012-12-16 00:15:00
6:35 PM,32.0,26.6,80,29.60,3.0,NW,11.5,-,N/A,,Overcast,310,2012-12-16 00:35:00
6:55 PM,32.0,26.6,80,29.61,2.0,NW,12.7,-,N/A,,Overcast,310,2012-12-16 00:55:00
7:15 PM,32.0,26.6,80,29.61,1.8,NW,11.5,-,N/A,,Overcast,310,2012-12-16 01:15:00
7:35 PM,32.0,26.6,80,29.61,1.8,NW,12.7,-,0.01,,Overcast,310,2012-12-16 01:35:00
7:55 PM,32.0,26.6,80,29.62,2.5,WNW,17.3,-,0.01,,Overcast,300,2012-12-16 01:55:00
8:15 PM,30.2,26.6,86,29.62,3.0,WNW,16.1,-,N/A,,Overcast,300,2012-12-16 02:15:00
8:35 PM,30.2,26.6,86,29.63,2.5,NW,15.0,-,N/A,,Overcast,310,2012-12-16 02:35:00
8:55 PM,32.0,26.6,80,29.62,3.0,NW,16.1,-,N/A,,Mostly Cloudy,310,2012-12-16 02:55:00
9:15 PM,30.2,24.8,80,29.62,3.0,NW,18.4,-,N/A,,Partly Cloudy,310,2012-12-16 03:15:00
9:35 PM,30.2,24.8,80,29.62,3.0,NW,15.0,-,N/A,,Mostly Cloudy,310,2012-12-16 03:35:00
9:55 PM,30.2,24.8,80,29.61,4.0,NW,16.1,-,N/A,,Partly Cloudy,320,2012-12-16 03:55:00
10:15 PM,30.2,24.8,80,29.61,4.0,NW,15.0,-,N/A,,Mostly Cloudy,310,2012-12-16 04:15:00
10:35 PM,30.2,24.8,80,29.61,4.0,NW,16.1,-,N/A,,Overcast,310,2012-12-16 04:35:00
10:55 PM,30.2,24.8,80,29.61,4.0,NW,16.1,20.7,N/A,,Scattered Clouds,320,2012-12-16 04:55:00
11:15 PM,30.2,24.8,80,29.62,4.0,NW,18.4,21.9,N/A,,Scattered Clouds,320,2012-12-16 05:15:00
11:35 PM,28.4,23.0,80,29.64,5.0,NNW,17.3,25.3,N/A,,Mostly Cloudy,330,2012-12-16 05:35:00
11:55 PM,26.6,19.4,74,29.64,5.0,NW,17.3,-,N/A,,Partly Cloudy,310,2012-12-16 05:55:00